TimeEST,TemperatureF,Dew PointF,Humidity,Sea Level PressureIn,VisibilityMPH,Wind Direction,Wind SpeedMPH,Gust SpeedMPH,PrecipitationIn,Events,Conditions,WindDirDegrees,DateUTC
12:07 AM,-2.2,-9.4,71,30.03,9.0,NW,5.8,-,N/A,,Overcast,310,2013-01-23 05:07:00
12:54 AM,-2.0,-11.9,63,30.10,10.0,NNW,6.9,-,N/A,,Overcast,330,2013-01-23 05:54:00
1:05 AM,-2.2,-13.0,60,30.04,10.0,NNW,8.1,-,N/A,,Overcast,340,2013-01-23 06:05:00
1:54 AM,-2.9,-14.1,59,30.11,10.0,NW,10.4,19.6,N/A,,Overcast,320,2013-01-23 06:54:00
2:54 AM,-5.1,-15.0,62,30.12,7.0,NW,9.2,-,N/A,,Overcast,320,2013-01-23 07:54:00
3:54 AM,-6.0,-15.0,65,30.12,6.0,NW,10.4,-,N/A,,Haze,310,2013-01-23 08:54:00
4:54 AM,-7.1,-16.1,65,30.13,6.0,NW,11.5,-,N/A,,Haze,320,2013-01-23 09:54:00
5:45 AM,-7.6,-20.2,54,30.08,9.0,WNW,13.8,-,N/A,,Mostly Cloudy,300,2013-01-23 10:45:00
5:54 AM,-9.0,-20.0,59,30.15,9.0,NW,15.0,20.7,N/A,,Mostly Cloudy,310,2013-01-23 10:54:00
6:01 AM,-9.4,-20.2,59,30.09,10.0,WNW,12.7,21.9,N/A,,Scattered Clouds,300,2013-01-23 11:01:00
6:54 AM,-9.0,-20.9,56,30.17,10.0,NW,11.5,-,N/A,,Mostly Cloudy,310,2013-01-23 11:54:00
7:45 AM,-9.4,-20.2,59,30.11,10.0,North,6.9,-,N/A,,Scattered Clouds,10,2013-01-23 12:45:00
7:54 AM,-9.9,-18.9,65,30.19,10.0,North,5.8,-,N/A,,Mostly Cloudy,350,2013-01-23 12:54:00
8:54 AM,-9.0,-20.9,56,30.21,10.0,WNW,8.1,-,N/A,,Mostly Cloudy,300,2013-01-23 13:54:00
9:35 AM,-9.4,-18.4,65,30.14,10.0,NE,5.8,-,N/A,,Mostly Cloudy,40,2013-01-23 14:35:00
9:54 AM,-8.0,-18.9,59,30.21,10.0,Calm,Calm,-,N/A,,Scattered Clouds,0,2013-01-23 14:54:00
10:54 AM,-8.0,-20.0,56,30.21,10.0,NNE,11.5,-,N/A,,Clear,20,2013-01-23 15:54:00
11:54 AM,-5.1,-18.9,51,30.19,10.0,NNE,9.2,-,N/A,,Clear,30,2013-01-23 16:54:00
12:54 PM,-2.9,-20.0,44,30.17,10.0,NNW,10.4,-,N/A,,Clear,340,2013-01-23 17:54:00
1:54 PM,-0.9,-20.9,38,30.16,10.0,NW,8.1,-,N/A,,Clear,320,2013-01-23 18:54:00
2:54 PM,-0.9,-20.0,40,30.16,10.0,NNW,9.2,-,N/A,,Clear,340,2013-01-23 19:54:00
3:54 PM,-4.0,-18.0,51,30.17,10.0,NNE,8.1,-,N/A,,Clear,20,2013-01-23 20:54:00
4:54 PM,-5.1,-18.0,54,30.17,10.0,Variable,4.6,-,N/A,,Clear,0,2013-01-23 21:54:00
5:54 PM,-6.0,-18.9,54,30.19,10.0,NNE,3.5,-,N/A,,Clear,20,2013-01-23 22:54:00
6:54 PM,-8.0,-18.9,59,30.20,10.0,NNW,5.8,-,N/A,,Clear,330,2013-01-23 23:54:00
7:54 PM,-9.0,-18.9,62,30.20,10.0,NNW,5.8,-,N/A,,Clear,340,2013-01-24 00:54:00
8:54 PM,-9.9,-20.0,61,30.19,10.0,Calm,Calm,-,N/A,,Clear,0,2013-01-24 01:54:00
9:54 PM,-11.0,-20.0,64,30.19,10.0,Calm,Calm,-,N/A,,Clear,0,2013-01-24 02:54:00
10:54 PM,-14.1,-20.0,75,30.21,10.0,Calm,Calm,-,N/A,,Clear,0,2013-01-24 03:54:00
11:54 PM,-14.1,-20.9,71,30.19,10.0,Calm,Calm,-,N/A,,Clear,0,2013-01-24 04:54:00